Houston, TX

2:48 AM CDT on May 28, 2018 (GMT -0500)
Hobby

Weather History for KHOU - June, 2013

Change the Weather History Date:

Tuesday, June 4, 2013

  Actual Average Record
Temperature  
Mean Temperature 81 °F 81 °F  
Max Temperature 92 °F 90 °F 98 °F (2011)
Min Temperature 69 °F 72 °F 59 °F (1970)
Cooling Degree Days 16 16  
Month to date cooling degree days 66 63  
Year to date cooling degree days 636 715  
Since 1 June cooling degree days 66 63  
Growing Degree Days 31 (Base 50)    
Moisture  
Dew Point 69 °F    
Average Humidity 69    
Maximum Humidity 97    
Minimum Humidity 41    
Precipitation  
Precipitation 0.00 in 0.17 in 3.72 in (1962)
Month to date precipitation 1.32 0.70  
Year to date precipitation 10.64 19.09  
Sea Level Pressure  
Sea Level Pressure 29.89 in    
Wind  
Wind Speed 3 mph (SSE)    
Max Wind Speed 15 mph    
Max Gust Speed 22 mph    
Visibility 10 miles    
Events      
T = Trace of Precipitation, MM = Missing Value Source: NWS Daily Summary

Daily Weather History Graph

Daily Weather History Graph

Search for Another Location

Airport or City:

Astronomy

Jun. 04, 2013 Rise Set
Actual Time 6:20 AM CDT 8:18 PM CDT
Civil Twilight 5:53 AM CDT 8:45 PM CDT
Nautical Twilight 5:20 AM CDT 9:18 PM CDT
Astronomical Twilight 4:46 AM CDT 9:53 PM CDT
Moon 3:36 AM CDT (6/4) 5:00 PM CDT (6/4)
Length of Visible Light 14h 51m
Length of Day
13h 57m
Waning Crescent, 14% of the Moon is Illuminated
Jun 4
Waning Crescent
Jun 8
New
Jun 16
First Quarter
Jun 23
Full
Jun 29
Last Quarter

Hourly Weather History & Observations

Time (CDT) Temp. Heat Index Dew Point Humidity Pressure Visibility Wind Dir Wind Speed Gust Speed Precip Events Conditions
12:53 AM 73.9 °F - 68.0 °F 82% 29.89 in 10.0 mi Calm Calm - N/A   Clear
1:53 AM 73.9 °F - 69.1 °F 85% 29.89 in 10.0 mi Calm Calm - N/A   Partly Cloudy
2:53 AM 75.0 °F - 69.1 °F 82% 29.89 in 10.0 mi Calm Calm - N/A   Clear
3:53 AM 73.9 °F - 69.1 °F 85% 29.89 in 10.0 mi Calm Calm - N/A   Clear
4:53 AM 73.0 °F - 69.1 °F 87% 29.89 in 10.0 mi Calm Calm - N/A   Scattered Clouds
5:53 AM 72.0 °F - 69.1 °F 91% 29.89 in 10.0 mi Calm Calm - N/A   Scattered Clouds
6:53 AM 71.1 °F - 69.1 °F 93% 29.90 in 10.0 mi Calm Calm - N/A   Mostly Cloudy
7:53 AM 77.0 °F - 71.1 °F 82% 29.90 in 10.0 mi South 3.5 mph - N/A   Scattered Clouds
8:53 AM 80.1 °F 83.2 °F 70.0 °F 71% 29.92 in 10.0 mi SSE 6.9 mph - N/A   Scattered Clouds
9:53 AM 82.0 °F 84.9 °F 68.0 °F 62% 29.94 in 10.0 mi SSW 4.6 mph - N/A   Scattered Clouds
10:53 AM 84.9 °F 87.1 °F 66.0 °F 53% 29.94 in 10.0 mi SSE 5.8 mph - N/A   Partly Cloudy
11:53 AM 87.1 °F 88.9 °F 64.9 °F 48% 29.93 in 10.0 mi SE 5.8 mph - N/A   Partly Cloudy
12:53 PM 90.0 °F 92.8 °F 66.9 °F 46% 29.92 in 10.0 mi ESE 3.5 mph - N/A   Partly Cloudy
1:53 PM 89.1 °F 91.0 °F 64.9 °F 45% 29.91 in 10.0 mi Variable 3.5 mph - N/A   Scattered Clouds
2:53 PM 90.0 °F 93.6 °F 68.0 °F 48% 29.87 in 10.0 mi SE 8.1 mph - N/A   Scattered Clouds
3:53 PM 91.0 °F 97.6 °F 71.1 °F 52% 29.86 in 10.0 mi SSE 9.2 mph - N/A   Scattered Clouds
4:53 PM 90.0 °F 95.4 °F 70.0 °F 52% 29.86 in 10.0 mi SE 6.9 mph - N/A   Scattered Clouds
5:53 PM 87.1 °F 91.3 °F 69.1 °F 55% 29.85 in 10.0 mi SE 10.4 mph - N/A   Scattered Clouds
6:53 PM 87.1 °F 91.3 °F 69.1 °F 55% 29.84 in 10.0 mi SSE 10.4 mph - N/A   Partly Cloudy
7:53 PM 84.0 °F 87.8 °F 69.1 °F 61% 29.85 in 10.0 mi SSE 6.9 mph - N/A   Partly Cloudy
8:53 PM 81.0 °F 84.9 °F 71.1 °F 72% 29.86 in 10.0 mi South 4.6 mph - N/A   Partly Cloudy
9:53 PM 79.0 °F - 72.0 °F 79% 29.88 in 10.0 mi South 4.6 mph - N/A   Clear
10:53 PM 78.1 °F - 72.0 °F 81% 29.90 in 10.0 mi SSE 4.6 mph - N/A   Clear
11:53 PM 77.0 °F - 73.0 °F 88% 29.91 in 10.0 mi South 4.6 mph - N/A   Clear